This is the latest recevied weather packets stored in our database for station/object IZ1UQG-N2. If no packets are shown the sender has not sent any weather packets the latest 10 day(s).
| Time | Temp. | Humidity | Pressure | Rain* | Wind** | Luminosity | Snow |
|---|---|---|---|---|---|---|---|
| 1787995425 | 24.44° C | 50% | 1012.8 hPa | 0 mm | - | 628 W/m² | - |
| 1787995364 | 24.44° C | 49% | 1012.8 hPa | 0 mm | - | 628 W/m² | - |
| 1787995304 | 24.44° C | 48% | 1012.8 hPa | 0 mm | - | 626 W/m² | - |
| 1787995246 | 24.44° C | 48% | 1012.8 hPa | 0 mm | - | 626 W/m² | - |
| 1787995184 | 24.44° C | 48% | 1012.8 hPa | 0 mm | - | 624 W/m² | - |
| 1787995126 | 24.44° C | 47% | 1012.7 hPa | 0 mm | - | 617 W/m² | - |
| 1787995066 | 24.44° C | 48% | 1012.7 hPa | 0 mm | - | 614 W/m² | - |
| 1787995005 | 24.44° C | 49% | 1012.8 hPa | 0 mm | - | 612 W/m² | - |
| 1787994945 | 24.44° C | 50% | 1012.8 hPa | 0 mm | - | 617 W/m² | - |
| 1787994885 | 23.89° C | 51% | 1012.8 hPa | 0 mm | - | 615 W/m² | - |
| 1787994824 | 23.89° C | 49% | 1012.7 hPa | 0 mm | - | 614 W/m² | - |
| 1787994764 | 23.89° C | 49% | 1012.7 hPa | 0 mm | - | 612 W/m² | - |
| 1787994704 | 23.89° C | 49% | 1012.7 hPa | 0 mm | - | 610 W/m² | - |
| 1787994646 | 24.44° C | 49% | 1012.8 hPa | 0 mm | - | 608 W/m² | - |
| 1787994585 | 23.89° C | 50% | 1012.8 hPa | 0 mm | - | 606 W/m² | - |
| 1787994524 | 23.89° C | 49% | 1012.8 hPa | 0 mm | - | 605 W/m² | - |
| 1787994464 | 23.89° C | 51% | 1012.8 hPa | 0 mm | - | 601 W/m² | - |
| 1787994406 | 23.89° C | 48% | 1012.8 hPa | 0 mm | - | 599 W/m² | - |
| 1787994346 | 23.89° C | 48% | 1012.8 hPa | 0 mm | - | 598 W/m² | - |
| 1787994284 | 23.89° C | 54% | 1012.8 hPa | 0 mm | - | 596 W/m² | - |
| 1787994226 | 24.44° C | 54% | 1012.7 hPa | 0 mm | - | 594 W/m² | - |
| 1787994166 | 24.44° C | 53% | 1012.7 hPa | 0 mm | - | 592 W/m² | - |
| 1787994105 | 24.44° C | 54% | 1012.8 hPa | 0 mm | - | 589 W/m² | - |
| 1787994045 | 24.44° C | 54% | 1012.7 hPa | 0 mm | - | 587 W/m² | - |
| 1787993985 | 24.44° C | 54% | 1012.9 hPa | 0 mm | - | 584 W/m² | - |
* Rain latest hour (hover to see other rain measurements)
** Current wind speed in m/s (hover to see current wind gust speed)